OPS 4682 DEB, 38387

Orbit data source: Space-Track

OPS 4682 DEB, 38387 is space debris in LEO originally from a launch on Sat, 03 Apr 1965 UTC launched from the Air Force Western Test Range (AFWTR). Debris objects in space refer to the collection of defunct objects orbiting the Earth. Examples of debris include non-operational satellites, rocket bodies, and fragments generated from explosions, collisions, or faulty payload assembly.

Loading next visibility...
Identifier
38387, 1965-027CQ
Orbit
LEO
Country
Flag of USUS
Related business
Manufacturer
Unknown
Mission
Spacecraft
Bus & Motor
Unknown
Mass
Unknown
Launch date (UTC)
1965-04-03 (61 years ago)
Launch vehicle
Unknown
Launch site
Air Force Western Test Range (AFWTR)
Object type
Payload
Rocket body
Debris
Shape & HBR
Unknown shape, 0.1 m
Radar Cross Section
Small (<0.1 m²)

Expand to show TLE details & history
Last TLE update: 4 days ago

TLE from 4 days ago
0 OPS 4682 DEB
1 38387U 65027CQ  25336.82831858  .00000602  00000-0  20800-2 0  9991
2 38387  90.2414   0.9791 0022504 260.5508  99.3068 12.96367487578408
Epoch: 2025-12-02T19:52Z
TLE epoch observation values (Epoch: 2025-12-02T19:52:46.725Z)
Latitude
-0.00003°
Longitude
-9.12345°
Altitude
1,282.055 km
Speed
7.214 km/s
True Right ascension
00h 03m 54s
True Declination
0° 00' 00"
Sunlit
Object was in daylight at epoch
Visualization orbit readout
Latitude
Unknown
Longitude
Unknown
Altitude
Unknown
Speed
Unknown
Apparent Right ascension
Unknown
Apparent Declination
Unknown
Sunlit
N/A
Visualization observer readout
Local Sidereal Time
03:28:22
Azimuth
Unknown
Elevation
Unknown
Doppler factor
Unknown
Orbital elements
Apogee altitude
1,290.704 km
Perigee altitude
1,256.265 km
Semi-major axis
7,651.622 km
Eccentricity
0.00225
Inclination
90.2414°
RAAN
0.9791°
Arg. of periapsis
260.5508°
True anomaly
99.56117°
Mean anomaly
99.3068°
Eccentric anomaly
99.43399°
Mean motion
3.24275 °/min
Orbital period
111.02 mins
BSTAR
0.00208
Loading maneuver chart data...
Computing Atmospheric mass density...
Loading historical data...
Loading historical data...
Loading historical data...
Loading historical data...
Loading historical data...
Loading historical data...
Loading historical data...

Documentation

Showing up to 5 results
|